Preview of NWS' New Version of Forecast
This preview is not operational and should not be used for support decisions.

Regional Weather Roundup (RWR)

Issued by National Weather Service (NWS)

                            
000
ASUS44 KMEG 181800
RWRTN 
TENNESSEE HOURLY STATE WEATHER ROUNDUP
NATIONAL WEATHER SERVICE MEMPHIS TN
1200 PM CST MON FEB 18 2019

TNZ002-004-019-021-049-052-054-088>092-181900-
WEST TENNESSEE
  
CITY           SKY/WX    TMP DP  RH WIND       PRES   REMARKS
MEMPHIS INTL   PTSUNNY   41  26  55 N12       30.38F                  
NWS MEMPHIS      N/A     38 N/A N/A MISG        N/A                   
JACKSON        FAIR      39  27  62 N10       30.40F WCI  32          
DYERSBURG      FAIR      36  25  64 N7        30.43F WCI  30          
$$

TNZ008-025-027-028-033-062-065-066-181900-
NORTH MIDDLE TENNESSEE
  
CITY           SKY/WX    TMP DP  RH WIND       PRES   REMARKS
NASHVILLE      PTSUNNY   38  25  59 NW9       30.38R WCI  31          
CLARKSVILLE    PTSUNNY   36  23  59 NW8       30.40R WCI  30          
SMYRNA         PTSUNNY   39  29  67 N10       30.38R WCI  32          
CROSSVILLE     FAIR      38  29  70 W12       30.27R WCI  30          
$$

TNZ061-075-076-078-094-096-097-181900-
SOUTH MIDDLE TENNESSEE
  
CITY           SKY/WX    TMP DP  RH WIND       PRES   REMARKS
$$

TNZ017-018-042-046-047-181900-
NORTHEAST TENNESSEE
  
CITY           SKY/WX    TMP DP  RH WIND       PRES   REMARKS
TRI CITIES     PTSUNNY   46  35  65 W14       30.20S                  
$$

TNZ012-013-036-069-073-074-181900-
CENTRAL EAST TENNESSEE
  
CITY           SKY/WX    TMP DP  RH WIND       PRES   REMARKS
KNOXVILLE      PTSUNNY   48  36  63 SW10      30.25S                  
OAK RIDGE      FAIR      44  32  62 VRB7      30.27S                  
$$

TNZ083-085-099-181900-
SOUTHEAST TENNESSEE
  
CITY           SKY/WX    TMP DP  RH WIND       PRES   REMARKS
CHATTANOOGA    PTSUNNY   48  33  56 N7        30.28S                  
$$

SKY/WX REPORTED AS FAIR MEANS FEW OR NO CLOUDS BELOW
12 THOUSAND FEET.